Weather History for Kalamazoo, MI

Change the Weather History Date:

Thursday, July 25, 2013

  Actual Average Record
Temperature  
Mean Temperature 65 °F 73 °F  
Max Temperature 76 °F 83 °F 94 °F (1953)
Min Temperature 53 °F 62 °F 50 °F (2003)
Degree Days  
Heating Degree Days 0 0  
Month to date heating degree days 5 0  
Since 1 June heating degree days 44 48  
Since 1 July heating degree days 5 0  
Cooling Degree Days 0 8  
Month to date cooling degree days 227 197  
Year to date cooling degree days 453 383  
Since 1 June cooling degree days 373 342  
Growing Degree Days 14 (Base 50)    
Moisture  
Dew Point 54 °F    
Average Humidity 70    
Maximum Humidity 93    
Minimum Humidity 46    
Precipitation  
Precipitation 0.00 in 0.12 in 1.16 in (2010)
Month to date precipitation 3.08 2.97  
Year to date precipitation 24.43 18.99  
Sea Level Pressure  
Sea Level Pressure 30.09 in    
Wind  
Wind Speed 3 mph (SSW)    
Max Wind Speed 9 mph    
Max Gust Speed -    
Visibility 10 miles    
Events Rain    
T = Trace of Precipitation, MM = Missing Value Source: NWS Daily Summary

Daily Weather History Graph

Daily Weather History Graph

Search for Another Location

Airport:

Trip Planner

Search our weather history database for the weather conditions in past years. The results will help you decide how hot, cold, wet, or windy it might be!

Date:

Astronomy

Jul. 25, 2013 Rise Set
Actual Time 6:28 AM EDT 9:08 PM EDT
Civil Twilight 5:55 AM EDT 9:40 PM EDT
Nautical Twilight 5:15 AM EDT 10:21 PM EDT
Astronomical Twilight 4:28 AM EDT 11:07 PM EDT
Moon 10:43 PM EDT (7/25) 10:02 AM EDT (7/25)
Length of Visible Light 15h 44m
Length of Day
14h 40m
Waning Gibbous, 88% of the Moon is Illuminated
Jul 25
Waning Gibbous
Jul 29
Last Quarter
Aug 6
New
Aug 14
First Quarter
Aug 20
Full

Hourly Weather History & Observations

Time (EDT) Temp. Dew Point Humidity Pressure Visibility Wind Dir Wind Speed Gust Speed Precip Events Conditions
12:53 AM 59.0 °F 51.1 °F 75% 30.06 in 10.0 mi Calm Calm - 0.00 in Rain Light Rain
1:53 AM 57.9 °F 52.0 °F 81% 30.07 in 10.0 mi Calm Calm - 0.00 in   Clear
2:53 AM 57.0 °F 52.0 °F 83% 30.07 in 10.0 mi Calm Calm - N/A   Clear
3:53 AM 55.0 °F 51.1 °F 86% 30.07 in 10.0 mi Calm Calm - 0.00 in   Clear
4:53 AM 55.0 °F 51.1 °F 86% 30.08 in 10.0 mi Calm Calm - N/A   Clear
5:53 AM 54.0 °F 51.1 °F 90% 30.09 in 10.0 mi Calm Calm - N/A   Clear
6:53 AM 54.0 °F 51.1 °F 90% 30.10 in 10.0 mi Calm Calm - N/A   Clear
7:53 AM 59.0 °F 55.0 °F 87% 30.11 in 10.0 mi Calm Calm - N/A   Clear
8:53 AM 63.0 °F 55.0 °F 75% 30.11 in 10.0 mi South 4.6 mph - N/A   Clear
9:53 AM 66.0 °F 54.0 °F 65% 30.12 in 10.0 mi South 4.6 mph - N/A   Clear
10:53 AM 69.1 °F 55.0 °F 61% 30.12 in 10.0 mi SSW 8.1 mph - N/A   Partly Cloudy
11:53 AM 71.1 °F 53.1 °F 53% 30.12 in 10.0 mi South 4.6 mph - N/A   Mostly Cloudy
12:53 PM 73.0 °F 52.0 °F 48% 30.12 in 10.0 mi NNE 3.5 mph - N/A   Scattered Clouds
1:53 PM 72.0 °F 53.1 °F 51% 30.11 in 10.0 mi Variable 3.5 mph - N/A   Scattered Clouds
2:53 PM 75.9 °F 54.0 °F 46% 30.11 in 10.0 mi South 6.9 mph - N/A   Scattered Clouds
3:53 PM 75.0 °F 54.0 °F 48% 30.10 in 10.0 mi SW 5.8 mph - N/A   Scattered Clouds
4:53 PM 75.9 °F 54.0 °F 46% 30.09 in 10.0 mi South 8.1 mph - N/A   Mostly Cloudy
5:53 PM 75.9 °F 54.0 °F 46% 30.07 in 10.0 mi SSW 4.6 mph - N/A   Mostly Cloudy
6:53 PM 75.0 °F 53.1 °F 46% 30.07 in 10.0 mi SSW 5.8 mph - N/A   Scattered Clouds
7:53 PM 72.0 °F 55.0 °F 55% 30.08 in 10.0 mi Calm Calm - N/A   Clear
8:53 PM 70.0 °F 57.0 °F 63% 30.07 in 10.0 mi WNW 3.5 mph - N/A   Clear
9:53 PM 68.0 °F 57.9 °F 70% 30.08 in 10.0 mi Calm Calm - N/A   Clear
10:53 PM 64.0 °F 57.0 °F 78% 30.09 in 10.0 mi Calm Calm - N/A   Clear
11:53 PM 63.0 °F 57.0 °F 81% 30.10 in 10.0 mi Calm Calm - N/A   Clear